Content
SEND FEEDBACK

Daily
Averages
Monthly
Summary
United States of America

PETERSBURG, INDIANA


Home > North America > United States > Indiana
Elevation: 427 feet     Latitude: 38 30N     Longitude: 087 18W

WEATHER
 
SELECT A DAY
Number of Records: 433,442;   Date Range: 1/1/95 - 10/21/14
 
SHARE

PRINT THIS DATA

[ ← Previous Day ]
WEATHER ALMANAC - JULY 22, 2014
[ Next Day → ]
[ °C ]   °F
Weather ElementAverageHighLow
Temperature78.4 °F91.4 °F (4:15 pm)64.4 °F (5:35 am)
Dewpoint67 °F71.6 °F (8:35 pm)60.8 °F (7:15 am)
Humidity70.5 %94 % (3:35 am)46 % (2:35 pm)
Barometer30.08 in30.12 in (7:15 am)30.03 in (6:15 pm)
Wind Speed3.1 mph11.5 mph (2:55 pm)
Wind Gust16.1 mph (3:55 pm)
Weather ElementAverage
Visibility7 mi
Wind DirectionESE (127 °)

Weather ElementTotal
Precipitation---
Cooling Degree Days12.9 (Base 65)
Growing Degree Days27.9 (Base 50)
Averaged from 69 records on July 22, 2014
WEATHER CONDITIONS BREAKOUT
WIND DIRECTION BREAKOUT
WEATHER BY HOUR - JULY 22, 2014
[ °C ]   °F
Local TimeTemperatureDewpointHumidityBarometerVisibilityWind DirectionWind SpeedGust SpeedPrecipitationEventsConditions
12:35 AM71.6 °F66.2 °F83 %30.09 in5.0 miCalmClear
12:55 AM69.8 °F64.4 °F83 %30.09 in3.0 miCalmClear
1:15 AM69.8 °F64.4 °F83 %30.09 in5.0 miCalmClear
1:35 AM69.8 °F64.4 °F83 %30.08 in5.0 miCalmClear
1:55 AM69.8 °F64.4 °F83 %30.08 in5.0 miCalmClear
2:15 AM68.0 °F64.4 °F88 %30.08 in2.5 miCalmClear
2:35 AM68.0 °F64.4 °F88 %30.08 in2.5 miCalmClear
2:55 AM68.0 °F64.4 °F88 %30.07 in3.0 miCalmClear
3:15 AM68.0 °F64.4 °F88 %30.08 in2.5 miCalmClear
3:35 AM66.2 °F64.4 °F94 %30.08 in2.5 miCalmClear
3:55 AM66.2 °F64.4 °F94 %30.08 in2.0 miCalmClear
4:15 AM66.2 °F62.6 °F88 %30.08 in1.5 miCalmClear
4:35 AM66.2 °F64.4 °F94 %30.08 in2.0 miCalmClear
4:55 AM66.2 °F62.6 °F88 %30.09 in0.8 miCalm
5:15 AM66.2 °F62.6 °F88 %30.09 in0.5 miCalm
5:35 AM64.4 °F62.6 °F94 %30.09 in0.5 miCalm
5:55 AM66.2 °F62.6 °F88 %30.10 in2.0 miCalmClear
6:15 AM66.2 °F62.6 °F88 %30.10 in1.2 miCalmClear
6:35 AM64.4 °F62.6 °F94 %30.10 in1.2 miCalmClear
6:55 AM64.4 °F62.6 °F94 %30.11 in0.5 miCalm
7:15 AM64.4 °F60.8 °F88 %30.12 in1.5 miCalmClear
7:35 AM64.4 °F62.6 °F94 %30.12 in1.8 miCalmClear
7:55 AM66.2 °F64.4 °F94 %30.12 in3.0 miCalmClear
8:15 AM69.8 °F64.4 °F83 %30.12 in2.5 miCalmClear
8:35 AM71.6 °F66.2 °F83 %30.12 in4.0 miCalmClear
8:55 AM73.4 °F66.2 °F78 %30.12 in5.0 miCalmClear
9:15 AM75.2 °F69.8 °F83 %30.12 in5.0 miSE (130°)3.5 mphClear
9:35 AM75.2 °F68.0 °F78 %30.11 in7.0 miCalmClear
9:55 AM78.8 °F69.8 °F74 %30.10 in7.0 miSouth (190°)3.5 mphClear
10:15 AM80.6 °F69.8 °F70 %30.11 in9.0 miSSW (210°)5.8 mphClear
10:35 AM80.6 °F69.8 °F70 %30.10 in10.0 miSouth (190°)4.6 mphClear
10:55 AM82.4 °F69.8 °F66 %30.10 in10.0 miSouth (180°)3.5 mphClear
11:15 AM84.2 °F69.8 °F62 %30.10 in10.0 miSouth (180°)4.6 mphClear
11:35 AM84.2 °F69.8 °F62 %30.10 in10.0 miSSW (200°)3.5 mphClear
11:55 AM84.2 °F69.8 °F62 %30.10 in10.0 miWest (270°)4.6 mphClear
12:15 PM86.0 °F69.8 °F58 %30.10 in10.0 miWest (280°)5.8 mphClear
12:35 PM87.8 °F69.8 °F55 %30.11 in10.0 miWest (260°)5.8 mphClear
1:15 PM87.8 °F69.8 °F55 %30.10 in10.0 miWNW (290°)4.6 mphScattered Clouds
1:35 PM89.6 °F69.8 °F52 %30.10 in10.0 miWest (280°)5.8 mphScattered Clouds
1:55 PM89.6 °F68.0 °F49 %30.09 in10.0 miWest (260°)8.1 mphPartly Cloudy
2:15 PM89.6 °F69.8 °F52 %30.08 in10.0 miSW (230°)6.9 mphClear
2:35 PM89.6 °F66.2 °F46 %30.08 in10.0 miWSW (240°)9.2 mphClear
2:55 PM89.6 °F66.2 °F46 %30.07 in10.0 miWSW (240°)11.5 mphClear
3:15 PM89.6 °F66.2 °F46 %30.07 in10.0 miSW (230°)9.2 mphClear
3:35 PM89.6 °F66.2 °F46 %30.06 in10.0 miWest (270°)5.8 mphClear
3:55 PM89.6 °F66.2 °F46 %30.06 in10.0 miWNW (290°)3.5 mph16.1 mphClear
4:15 PM91.4 °F69.8 °F49 %30.05 in10.0 miSW (230°)6.9 mphPartly Cloudy
4:35 PM91.4 °F68.0 °F46 %30.05 in10.0 miWSW (250°)8.1 mphClear
4:55 PM91.4 °F68.0 °F46 %30.05 in10.0 miWest (260°)6.9 mphClear
5:15 PM91.4 °F68.0 °F46 %30.04 in10.0 miWest (280°)10.4 mphClear
5:35 PM91.4 °F68.0 °F46 %30.04 in10.0 miWSW (250°)6.9 mphClear
5:55 PM89.6 °F68.0 °F49 %30.04 in10.0 miWNW (290°)6.9 mphClear
6:15 PM89.6 °F68.0 °F49 %30.03 in10.0 miSW (230°)6.9 mphClear
6:35 PM89.6 °F68.0 °F49 %30.03 in10.0 miWSW (250°)8.1 mphClear
6:55 PM89.6 °F68.0 °F49 %30.03 in10.0 miWest (280°)6.9 mphClear
7:15 PM89.6 °F69.8 °F52 %30.03 in10.0 miWNW (290°)8.1 mphClear
7:35 PM87.8 °F68.0 °F52 %30.03 in10.0 miWest (270°)5.8 mphClear
7:55 PM87.8 °F69.8 °F55 %30.03 in10.0 miWest (260°)5.8 mphClear
8:15 PM86.0 °F69.8 °F58 %30.03 in10.0 miWNW (290°)4.6 mphClear
8:35 PM84.2 °F71.6 °F66 %30.03 in10.0 miWest (280°)3.5 mphClear
8:55 PM82.4 °F69.8 °F66 %30.03 in10.0 miWNW (300°)3.5 mphClear
9:15 PM82.4 °F69.8 °F66 %30.04 in10.0 miCalmClear
9:35 PM80.6 °F69.8 °F70 %30.05 in10.0 miNNW (330°)3.5 mphClear
10:15 PM78.8 °F69.8 °F74 %30.06 in10.0 miCalmClear
10:35 PM77.0 °F69.8 °F78 %30.07 in10.0 miCalmClear
10:55 PM77.0 °F69.8 °F78 %30.06 in10.0 miCalmClear
11:15 PM75.2 °F69.8 °F83 %30.06 in10.0 miCalmClear
11:35 PM75.2 °F69.8 °F83 %30.06 in10.0 miCalmClear
11:55 PM73.4 °F68.0 °F83 %30.05 in10.0 miCalmClear
Hourly data recorded from KHNB, located miles away from Petersburg, Indiana







STORIES FROM OUR PARTNERS